Wind_Speed
27 29 30 31 32 33 33 34 35 35 36 37 37 37 37 38 38 39 39 40 41 41 42 42 41 42 42 43 43 43 43 43 43 43 43 44 45 44 45 45 45 44 43 43
29 30 31 32 33 34 34 35 36 37 38 39 39 39 38 39 39 40 40 40 40 41 42 42 42 42 43 44 44 44 44 44 44 44 45 45 45 46 46 46 46 47 46 45
31 32 32 33 33 34 36 36 37 37 38 39 40 40 39 40 41 41 41 41 41 41 42 43 43 43 43 43 44 45 45 46 46 47 47 48 48 47 48 48 48 47 48 48
32 32 32 33 33 35 36 36 37 38 39 40 40 42 40 40 40 41 42 42 42 41 42 43 43 44 44 44 44 44 45 46 47 48 49 49 49 49 49 50 50 50 50 50
32 32 32 32 32 34 35 35 37 38 39 40 40 42 41 40 40 41 42 43 42 42 42 43 43 44 44 44 44 45 46 47 48 48 49 50 50 50 50 51 51 52 52 52
32 32 32 32 33 33 33 34 36 37 37 38 38 40 40 40 40 41 43 43 43 43 42 43 44 44 45 45 45 46 46 46 47 48 49 50 50 51 51 52 52 53 53 53
32 32 33 33 33 33 33 33 35 36 37 38 38 39 40 40 40 41 42 43 43 43 43 43 43 43 44 45 45 45 45 45 46 47 49 50 51 52 52 53 53 53 54 54
33 33 33 33 33 33 33 33 34 36 37 38 38 39 39 39 39 40 41 42 42 42 43 43 43 43 43 43 45 44 44 45 45 46 48 49 51 52 53 54 54 54 55 55
35 34 34 34 33 33 33 33 34 36 38 39 39 39 39 38 38 39 39 40 41 41 42 43 43 43 43 43 44 44 44 44 44 45 45 47 49 50 51 53 54 54 55 55
35 35 35 34 33 33 34 35 35 35 37 39 39 39 39 39 39 39 39 40 40 41 41 42 43 44 44 44 43 43 44 44 44 45 45 46 47 48 49 51 53 54 54 54
36 36 36 35 33 33 34 35 36 36 37 38 40 39 39 39 39 39 39 39 40 41 41 41 42 43 44 43 43 43 43 44 44 44 44 45 44 45 46 47 49 50 51 52
36 36 36 34 34 34 34 35 35 35 36 37 39 39 38 38 38 39 39 39 39 39 40 40 41 41 42 42 42 43 43 42 42 42 43 43 43 43 44 45 46 47 49 50
36 36 36 36 35 35 35 35 36 36 37 38 39 38 37 37 38 38 38 38 38 38 38 38 38 39 39 40 40 40 40 40 39 39 39 40 41 41 41 43 44 44 45 47
36 36 36 36 36 36 36 36 37 37 38 39 39 38 37 36 36 36 36 36 36 36 37 37 36 37 37 38 38 38 37 37 37 37 37 37 38 39 39 40 41 42 42 44
36 36 36 37 37 38 38 37 37 37 37 38 38 38 37 36 35 35 34 34 34 34 35 35 35 35 35 36 36 37 37 37 37 36 36 36 37 38 38 38 39 40 40 42
37 38 38 37 38 38 38 38 38 37 37 37 37 36 36 35 35 34 33 32 32 32 32 32 32 33 33 33 34 34 35 36 36 35 35 35 36 36 37 38 38 38 38 39
38 38 39 38 38 39 38 38 38 38 37 37 36 35 35 34 34 33 32 31 31 31 31 31 31 30 30 31 32 32 33 33 34 35 34 34 34 34 35 36 37 37 37 38
38 38 39 39 38 38 38 37 37 37 36 36 35 35 35 34 33 33 33 32 31 31 30 30 31 31 30 29 29 30 30 31 32 32 32 32 32 32 33 34 35 36 37 37
37 38 38 39 39 39 37 37 37 37 35 35 35 35 35 34 33 32 33 33 33 31 30 30 31 30 29 29 28 29 29 29 30 30 31 31 31 31 31 32 33 34 35 36
37 37 38 38 39 39 38 38 37 37 35 34 34 34 34 33 32 31 32 32 32 31 30 29 30 29 29 29 29 28 28 29 29 30 30 30 30 30 30 30 31 32 33 34
38 38 37 37 38 38 38 37 36 36 36 35 34 33 33 32 32 32 31 31 31 31 31 30 29 29 29 30 30 30 30 29 29 29 30 30 30 29 29 29 29 30 31 32
38 37 37 37 37 37 36 36 36 36 36 35 34 33 32 32 32 32 31 31 31 31 32 32 31 30 30 30 30 30 29 30 30 29 29 29 29 29 29 28 28 28 29 30
37 37 37 37 36 36 36 36 36 36 35 34 34 33 32 32 31 31 31 31 32 32 32 32 32 31 31 30 29 28 28 28 28 28 28 29 29 28 28 28 27 28 28 29
36 36 36 36 35 35 35 35 34 34 33 32 32 32 32 31 30 30 30 31 31 32 32 32 32 31 30 29 28 27 27 27 27 28 28 27 27 27 27 27 27 27 28 28
36 36 36 35 35 35 34 34 33 33 32 32 32 32 31 30 30 30 30 31 31 31 31 31 31 31 30 30 29 28 28 27 27 27 27 28 28 27 27 27 26 27 27 27
35 35 36 36 36 36 34 34 33 33 33 33 32 31 31 30 30 30 30 30 31 31 30 29 29 29 29 29 29 29 29 28 27 27 27 28 28 28 27 27 27 27 27 27
Wind_Direction
297 294 292 290 288 286 285 285 284 281 278 275 273 272 270 270 270 269 269 268 267 267 266 265 264 263 261 260 260 259 258 257 256 255 254 253 251 250 249 249 249 248 248 248
298 296 295 292 288 286 286 287 285 282 279 277 275 273 271 270 270 270 269 269 268 266 266 265 264 263 262 261 260 260 259 258 257 256 254 253 252 251 250 249 249 248 248 248
299 298 296 294 290 288 289 289 287 284 280 277 276 275 274 272 271 271 271 269 268 266 265 265 263 263 262 262 261 260 259 258 257 256 255 253 253 252 251 250 249 249 248 247
301 300 298 296 293 293 292 291 288 285 282 279 278 278 276 276 274 271 271 271 269 268 266 265 264 263 263 262 261 260 260 259 258 257 256 254 253 252 250 250 250 249 248 248
303 302 299 297 297 296 294 292 289 287 284 282 280 280 279 277 276 274 272 271 271 269 268 265 264 264 264 263 262 261 260 260 259 258 256 255 254 252 250 250 250 249 249 248
304 304 301 299 299 297 296 294 292 290 288 285 283 283 282 280 278 277 275 273 271 270 269 266 265 264 264 264 263 262 261 260 259 259 257 255 254 252 252 251 250 249 249 249
305 305 303 301 300 299 298 297 295 293 291 289 287 285 285 284 282 279 277 275 273 271 270 268 267 266 265 264 264 263 262 261 261 260 258 256 254 253 252 250 250 249 248 248
307 307 306 304 302 302 300 298 297 296 294 292 290 287 288 287 286 283 279 276 274 272 271 269 268 267 266 265 265 264 263 262 262 261 259 258 257 255 253 251 250 250 249 248
308 307 306 306 303 302 300 298 299 297 295 294 292 291 289 289 287 285 283 280 277 274 272 271 269 268 267 266 266 265 264 263 263 262 261 260 259 258 256 253 252 251 250 249
308 308 308 307 305 304 302 300 300 300 299 297 295 294 293 291 289 286 284 282 279 276 274 272 270 269 267 266 266 265 265 265 264 263 262 261 260 259 257 254 252 251 250 249
308 308 309 307 306 305 304 303 301 300 298 298 298 297 296 294 290 288 285 283 280 277 275 273 271 269 268 266 266 266 266 265 264 263 263 262 261 258 256 254 253 251 250 249
308 308 307 307 306 304 303 303 302 300 298 298 298 298 298 295 292 289 287 284 282 279 277 275 273 271 269 268 267 268 267 266 265 264 263 262 261 259 256 254 253 252 251 249
307 307 306 306 306 305 304 303 302 301 299 298 298 298 298 295 292 290 288 285 283 281 279 277 275 273 270 269 268 267 266 265 265 265 265 263 261 259 258 255 254 253 252 250
305 305 306 306 306 305 304 303 302 301 301 299 298 298 297 295 293 291 289 286 284 282 280 278 276 274 272 270 268 266 265 265 265 266 264 263 261 259 256 254 254 254 253 252
304 304 304 304 303 303 303 302 302 301 301 300 300 298 296 295 294 292 290 287 286 284 283 280 277 276 274 271 269 267 266 265 265 265 264 263 261 258 255 254 253 253 253 253
304 304 304 303 303 302 302 303 301 301 302 302 301 300 297 295 294 293 292 289 287 285 284 281 279 276 274 272 270 268 267 266 265 265 264 263 261 258 255 253 252 252 253 253
305 305 305 304 304 304 304 304 302 301 301 302 301 300 299 298 295 293 292 290 288 286 284 282 280 279 275 273 271 269 269 267 266 265 264 263 260 258 256 254 251 252 253 254
305 305 305 306 306 305 306 305 304 302 302 302 301 300 299 299 297 294 291 289 289 288 284 282 281 280 278 275 271 270 269 267 267 266 264 261 260 259 258 256 254 253 252 252
306 306 306 307 307 307 307 306 305 304 304 303 301 299 297 297 296 295 293 289 287 287 285 283 281 280 279 277 273 270 269 269 269 267 264 262 260 259 259 258 256 255 252 250
306 306 306 307 307 308 309 306 304 304 304 304 303 300 298 297 296 295 294 291 288 286 284 284 284 281 279 277 275 273 271 269 269 267 264 263 261 260 260 259 257 256 253 252
306 306 307 307 306 307 309 308 307 304 305 305 304 302 300 299 298 296 294 292 289 288 286 285 284 282 279 277 276 275 273 270 268 267 265 263 262 260 259 259 257 255 253 251
306 306 306 305 306 308 308 306 306 305 305 305 305 304 303 300 299 298 296 293 291 290 288 285 284 281 279 277 276 275 273 270 268 266 265 264 262 260 258 257 257 255 253 251
304 305 305 305 306 306 307 306 306 305 304 305 305 304 303 302 300 298 297 294 292 291 289 286 283 281 279 277 275 274 273 270 267 266 265 263 261 260 258 258 257 256 254 251
304 304 304 305 305 305 306 306 306 305 305 305 305 305 305 303 302 301 298 296 294 293 291 288 284 281 279 277 274 273 271 269 267 264 263 262 261 259 258 258 257 256 254 252
303 303 303 303 304 304 305 305 304 304 305 306 306 306 305 304 303 302 302 300 298 296 294 290 286 282 279 277 274 272 271 269 267 264 261 259 259 258 257 257 257 256 253 252
303 302 302 303 304 304 304 303 302 303 304 305 305 304 304 305 304 304 303 303 301 299 296 292 288 285 281 277 274 273 271 268 266 263 260 258 256 255 255 255 255 254 253 252
Height
5725 5723 5720 5717 5715 5712 5710 5708 5707 5706 5704 5703 5702 5702 5703 5702 5701 5701 5701 5700 5700 5700 5700 5700 5701 5701 5701 5702 5703 5704 5705 5707 5708 5710 5711 5714 5716 5718 5721 5723 5725 5727 5729 5732
5718 5715 5712 5708 5705 5702 5700 5699 5697 5695 5693 5692 5691 5691 5691 5691 5691 5690 5690 5690 5690 5689 5689 5689 5690 5690 5690 5691 5692 5693 5694 5695 5696 5698 5699 5702 5704 5706 5709 5711 5713 5716 5718 5721
5710 5707 5703 5700 5697 5694 5692 5689 5687 5685 5683 5681 5680 5680 5681 5680 5679 5679 5679 5678 5678 5678 5678 5678 5678 5679 5679 5679 5680 5681 5682 5683 5684 5685 5687 5689 5692 5694 5697 5699 5702 5704 5706 5709
5702 5699 5695 5692 5688 5685 5683 5680 5677 5674 5672 5671 5670 5667 5670 5669 5668 5667 5667 5666 5666 5666 5666 5666 5666 5667 5667 5668 5668 5669 5669 5670 5671 5672 5674 5676 5679 5682 5684 5686 5689 5691 5694 5697
5695 5691 5687 5683 5680 5676 5673 5670 5667 5665 5662 5660 5659 5656 5658 5657 5656 5655 5655 5654 5654 5654 5654 5654 5654 5654 5654 5655 5656 5656 5657 5657 5658 5659 5661 5663 5665 5668 5670 5672 5675 5678 5681 5684
5687 5683 5679 5675 5672 5668 5664 5662 5658 5655 5652 5650 5649 5647 5646 5645 5645 5644 5643 5642 5641 5642 5642 5641 5641 5642 5642 5642 5642 5643 5644 5644 5645 5646 5647 5649 5651 5653 5656 5659 5661 5664 5667 5670
5680 5676 5672 5668 5664 5661 5657 5654 5650 5646 5643 5641 5640 5637 5636 5635 5633 5632 5631 5629 5629 5629 5629 5629 5629 5629 5629 5629 5630 5630 5631 5631 5632 5632 5633 5635 5637 5639 5641 5644 5647 5649 5653 5656
5673 5670 5665 5660 5657 5653 5649 5646 5642 5638 5634 5632 5630 5628 5627 5625 5622 5620 5618 5618 5617 5617 5617 5617 5617 5617 5616 5617 5617 5617 5618 5618 5619 5619 5620 5621 5622 5624 5626 5629 5631 5634 5637 5641
5665 5662 5657 5653 5649 5645 5641 5637 5634 5630 5625 5622 5621 5619 5617 5614 5612 5609 5607 5605 5605 5605 5604 5604 5604 5604 5604 5604 5604 5604 5605 5605 5605 5606 5606 5607 5608 5609 5611 5613 5616 5618 5621 5625
5657 5654 5650 5646 5642 5637 5634 5629 5626 5621 5616 5612 5611 5609 5607 5604 5601 5599 5597 5594 5593 5592 5592 5591 5591 5591 5591 5591 5591 5591 5592 5592 5592 5592 5593 5593 5594 5595 5596 5598 5601 5603 5606 5609
5650 5646 5643 5638 5634 5630 5626 5622 5617 5613 5608 5604 5600 5602 5598 5594 5591 5588 5586 5584 5582 5581 5580 5579 5579 5578 5579 5579 5579 5579 5579 5579 5579 5579 5579 5580 5581 5581 5583 5584 5586 5589 5592 5595
5643 5639 5635 5631 5627 5622 5618 5614 5610 5606 5601 5596 5592 5594 5589 5585 5581 5578 5576 5573 5571 5570 5569 5568 5567 5566 5566 5566 5566 5566 5566 5566 5566 5566 5567 5567 5568 5569 5570 5572 5573 5575 5578 5581
5635 5631 5627 5623 5621 5616 5611 5606 5602 5597 5593 5589 5585 5585 5579 5575 5571 5568 5566 5563 5561 5559 5558 5557 5556 5555 5555 5554 5554 5554 5554 5554 5554 5554 5555 5555 5556 5557 5558 5559 5561 5563 5565 5568
5627 5623 5620 5616 5611 5607 5603 5599 5594 5589 5585 5580 5577 5574 5571 5566 5562 5559 5556 5553 5551 5549 5548 5546 5545 5544 5544 5543 5543 5542 5542 5543 5543 5543 5544 5544 5545 5546 5547 5548 5550 5552 5554 5557
5619 5616 5612 5608 5603 5599 5595 5591 5586 5581 5577 5572 5569 5565 5561 5557 5554 5550 5547 5544 5542 5540 5538 5536 5535 5534 5533 5532 5532 5532 5532 5532 5532 5533 5533 5533 5534 5535 5536 5537 5539 5541 5543 5546
5611 5608 5604 5600 5595 5590 5586 5583 5578 5573 5569 5564 5560 5556 5552 5549 5545 5541 5538 5535 5533 5531 5529 5527 5525 5524 5523 5522 5522 5522 5521 5522 5522 5522 5522 5523 5523 5524 5526 5527 5529 5531 5533 5535
5604 5599 5595 5591 5587 5582 5579 5575 5570 5565 5560 5556 5552 5549 5544 5540 5536 5533 5530 5527 5524 5522 5520 5518 5516 5515 5514 5513 5512 5512 5512 5512 5512 5512 5512 5513 5513 5514 5515 5517 5518 5520 5523 5525
5596 5591 5585 5582 5578 5573 5572 5566 5561 5556 5552 5548 5543 5539 5535 5532 5528 5524 5521 5519 5516 5514 5512 5510 5508 5506 5505 5504 5503 5503 5503 5503 5503 5502 5503 5503 5504 5505 5506 5507 5509 5510 5512 5514
5588 5583 5577 5573 5568 5564 5563 5557 5552 5548 5545 5540 5535 5531 5527 5523 5520 5517 5513 5510 5508 5505 5503 5501 5499 5498 5497 5496 5495 5495 5494 5494 5494 5494 5494 5494 5495 5496 5497 5498 5499 5500 5502 5505
5580 5575 5571 5565 5559 5556 5555 5549 5543 5540 5536 5532 5527 5523 5519 5515 5512 5510 5505 5502 5499 5497 5495 5493 5491 5489 5488 5487 5486 5486 5486 5486 5486 5486 5486 5486 5487 5488 5488 5489 5490 5492 5494 5496
5572 5567 5562 5557 5551 5548 5545 5540 5535 5532 5529 5523 5519 5514 5511 5507 5504 5501 5497 5494 5491 5489 5487 5485 5483 5481 5480 5479 5478 5477 5477 5477 5477 5477 5478 5478 5478 5479 5480 5481 5482 5483 5485 5487
5563 5559 5554 5549 5544 5543 5536 5531 5528 5524 5519 5514 5510 5506 5502 5499 5495 5492 5489 5486 5483 5481 5479 5476 5475 5473 5471 5470 5469 5469 5468 5468 5468 5469 5469 5470 5470 5471 5472 5474 5475 5476 5477 5479
5555 5552 5546 5542 5540 5533 5528 5523 5519 5515 5511 5506 5502 5499 5495 5491 5487 5484 5481 5478 5475 5473 5470 5468 5466 5464 5462 5461 5460 5460 5459 5459 5460 5460 5461 5461 5462 5463 5464 5466 5467 5468 5469 5471
5547 5543 5538 5534 5530 5525 5520 5515 5511 5507 5503 5499 5495 5491 5487 5483 5480 5476 5473 5470 5467 5464 5461 5459 5457 5455 5453 5452 5451 5451 5451 5451 5451 5452 5452 5453 5454 5455 5456 5458 5459 5460 5462 5463
5539 5534 5530 5525 5522 5517 5513 5508 5504 5500 5495 5491 5487 5483 5480 5476 5473 5469 5466 5462 5459 5456 5453 5450 5448 5446 5445 5444 5443 5443 5442 5442 5443 5443 5444 5445 5446 5447 5449 5450 5451 5452 5454 5455
5531 5526 5522 5518 5513 5509 5505 5500 5496 5492 5488 5484 5480 5476 5472 5469 5465 5462 5458 5454 5451 5447 5444 5442 5439 5437 5436 5435 5434 5434 5434 5434 5434 5435 5436 5437 5438 5439 5441 5442 5443 5444 5446 5447